[[{"header":{"parameterUnit":"m.s-1","parameterCategory":1,"la1":30.2992,"la2":30.254,"lo1":-89.0895,"lo2":-89.0443,"dy":0.0025,"dx":0.0025,"nx":19,"ny":19,"refTime":"2026-04-18T09:00:00:Z","depth":0,"parameterNumber":2,"parameterNumberName":"U-component_of_WINDS"},"data":[0,0,0,2.8972,2.8975,2.9158,2.9159,2.9392,2.9394,0,0,0,0,0,0,0,0,0,0,0,2.8911,2.8912,2.8971,2.8976,2.9158,2.9159,2.9392,2.9394,0,0,0,0,0,0,0,0,0,0,0,2.891,2.8912,2.8913,2.8976,2.9158,2.9159,2.9391,2.9255,0,0,0,0,0,0,0,0,0,0,2.9078,2.9014,2.8912,2.8914,2.8977,2.9158,2.9159,2.9249,2.9264,2.9307,0,2.9339,0,2.937,2.9409,2.941,0,0,0,2.8982,2.9001,2.9056,2.8914,2.8979,2.9157,2.9077,2.9257,2.9274,2.9327,2.9343,2.9352,2.9374,2.9411,2.9412,2.9634,2.9635,0,0,2.8972,2.8941,2.9045,2.9067,2.9032,2.9072,2.9083,2.9267,2.9284,2.9344,2.9357,2.9378,2.9412,2.9414,2.9633,2.9634,0,0,0,2.8939,2.8934,2.8985,2.9057,2.909,2.9077,2.909,2.9276,2.9295,2.936,2.9381,2.9414,2.9416,2.9632,2.9633,2.9639,0,0,0,2.8933,2.8915,2.898,2.8963,2.9086,2.9184,2.9094,2.9282,2.9304,2.9379,2.9414,2.9419,2.9631,2.9633,2.9637,2.9647,0,0,0,2.8902,2.8911,2.8935,2.8961,2.9038,2.9182,2.9211,2.9287,2.9316,2.941,2.9419,2.9631,2.9633,2.9635,2.9644,2.9697,0,0,0,2.886,2.8938,2.8934,2.9031,2.9036,2.9182,2.921,2.9322,2.9403,2.9415,2.9632,2.9633,2.9635,2.9642,2.9695,2.9734,2.9748,0,0,2.8941,2.8946,2.9006,2.9008,2.9146,2.9157,2.93,2.9404,2.9444,2.957,2.9576,2.9638,2.9644,2.9696,2.9837,2.9847,0,0,0,2.9021,2.9063,2.9107,2.9181,2.9262,2.9334,2.942,2.946,2.9568,2.95,2.9673,2.9677,2.9709,2.973,2.9739,2.977,2.9642,2.9641,2.9641,2.9091,2.9136,2.9238,2.9306,2.9379,2.9469,2.9534,2.9605,2.9629,2.967,2.9707,2.9786,2.9809,2.9816,2.9848,2.9733,2.9733,2.9733,2.9733,2.9214,2.9281,2.9314,2.9424,2.9474,2.957,2.9664,2.9679,2.9779,2.9761,2.9792,2.9766,2.9826,2.9856,2.9734,2.9734,2.9734,2.9733,2.9733,2.9263,2.9303,2.935,2.9465,2.955,2.962,2.9715,2.9758,2.98,2.9831,2.9877,2.9877,2.9883,2.985,2.985,2.9851,2.9851,2.9851,2.9851,2.9294,2.9347,2.9418,2.9514,2.957,2.965,2.9747,2.9806,2.9883,2.9907,2.9908,2.9931,2.9823,2.9794,2.9856,2.9855,2.9854,2.9854,2.9854,2.9399,2.9383,2.9493,2.9549,2.9669,2.9754,2.981,2.9927,2.9982,3.0029,3.0049,2.9961,2.997,2.9964,2.994,3.0036,3.0036,3.0036,3.0036,2.944,2.9449,2.9573,2.9661,2.9753,2.9816,2.9948,3.0027,3.0108,3.0147,3.0141,3.0115,3.0106,3.0121,3.0111,3.009,3.0221,3.0222,3.0222,2.9507,2.9529,2.9627,2.9701,2.98,2.9886,3.0012,3.0118,3.0208,3.023,3.018,3.0172,3.013,3.0114,3.0131,3.0114,3.0076,0,0]},{"header":{"parameterUnit":"m.s-1","parameterCategory":1,"la1":30.2992,"la2":30.254,"lo1":-89.0895,"lo2":-89.0443,"dy":0.0025,"dx":0.0025,"nx":19,"ny":19,"refTime":"2026-04-18T09:00:00:Z","depth":0,"parameterNumber":3,"parameterNumberName":"V-component_of_WINDS"},"data":[0,0,0,-10.9346,-10.9354,-10.9718,-10.9719,-11.0175,-11.0179,0,0,0,0,0,0,0,0,0,0,0,-10.9238,-10.9241,-10.9346,-10.9355,-10.9718,-10.972,-11.0174,-11.0179,0,0,0,0,0,0,0,0,0,0,0,-10.9237,-10.924,-10.9244,-10.9356,-10.9718,-10.972,-11.0173,-10.9901,0,0,0,0,0,0,0,0,0,0,-10.9549,-10.945,-10.924,-10.9245,-10.9358,-10.9717,-10.972,-10.9888,-10.9918,-11.0008,0,-11.0092,0,-11.0143,-11.0209,-11.0211,0,0,0,-10.9354,-10.9425,-10.9524,-10.9245,-10.9362,-10.9717,-10.9554,-10.9905,-10.9938,-11.0047,-11.0099,-11.0116,-11.0151,-11.0212,-11.0214,-11.0751,-11.0754,0,0,-10.9333,-10.9302,-10.9501,-10.9546,-10.9496,-10.9542,-10.9565,-10.9925,-10.9976,-11.01,-11.0126,-11.0158,-11.0215,-11.0218,-11.0749,-11.0752,0,0,0,-10.9277,-10.9287,-10.9378,-10.9527,-10.9594,-10.9553,-10.9579,-10.996,-10.9993,-11.0131,-11.0164,-11.0217,-11.0223,-11.0746,-11.075,-11.0849,0,0,0,-10.9265,-10.9255,-10.937,-10.9353,-10.9587,-10.9783,-10.9606,-10.9968,-11.001,-11.0161,-11.0218,-11.0227,-11.0743,-11.0748,-11.0841,-11.09,0,0,0,-10.9214,-10.9249,-10.9302,-10.9351,-10.9507,-10.9778,-10.9831,-10.9978,-11.003,-11.0211,-11.0229,-11.0742,-11.0747,-11.0833,-11.0887,-11.1034,0,0,0,-10.915,-10.938,-10.9303,-10.9572,-10.9504,-10.9838,-10.9829,-11.0078,-11.0245,-11.022,-11.0744,-11.075,-11.083,-11.088,-11.1025,-11.1152,-11.1202,0,0,-10.9422,-10.9412,-10.9573,-10.9515,-10.9856,-10.9785,-11.014,-11.0319,-11.0362,-11.0618,-11.0631,-11.0843,-11.0887,-11.1032,-11.1493,-11.1532,0,0,0,-10.9648,-10.9764,-10.9861,-11.0023,-11.0171,-11.0301,-11.0431,-11.0498,-11.0719,-11.0489,-11.0937,-11.0963,-11.105,-11.1111,-11.1145,-11.1221,-11.0777,-11.0776,-11.0776,-10.9985,-11.0035,-11.0305,-11.0399,-11.0555,-11.069,-11.082,-11.0932,-11.093,-11.1036,-11.1112,-11.1386,-11.1457,-11.1483,-11.1562,-11.1182,-11.1183,-11.1183,-11.1183,-11.0389,-11.0561,-11.0561,-11.0823,-11.0872,-11.109,-11.1229,-11.1222,-11.143,-11.1332,-11.141,-11.1298,-11.1525,-11.1596,-11.1191,-11.119,-11.1189,-11.1188,-11.1188,-11.0615,-11.0706,-11.0789,-11.103,-11.1209,-11.1294,-11.1497,-11.1532,-11.1566,-11.1644,-11.1728,-11.1727,-11.1729,-11.1682,-11.1683,-11.1684,-11.1685,-11.1686,-11.1686,-11.0817,-11.0907,-11.1077,-11.1257,-11.1367,-11.1516,-11.1656,-11.1763,-11.1891,-11.19,-11.1901,-11.1888,-11.1539,-11.145,-11.1701,-11.1699,-11.1697,-11.1695,-11.1694,-11.1207,-11.1126,-11.1388,-11.1499,-11.1714,-11.189,-11.1936,-11.2152,-11.2245,-11.2344,-11.2317,-11.2053,-11.2042,-11.2016,-11.1943,-11.2306,-11.2306,-11.2306,-11.2306,-11.1397,-11.1398,-11.1676,-11.1852,-11.2027,-11.2096,-11.2387,-11.2499,-11.2599,-11.266,-11.2612,-11.2518,-11.249,-11.2496,-11.2459,-11.2391,-11.2861,-11.2862,-11.2862,-11.164,-11.1661,-11.1904,-11.2009,-11.218,-11.2325,-11.2601,-11.2798,-11.2895,-11.2885,-11.2708,-11.2684,-11.2533,-11.2482,-11.2465,-11.2407,-11.2284,0,0]}]]